Погода в Городнице

Украина / Житомирская область     50°48′34″N   27°19′06″E
темп.,
°C
ветер,
м/с
пор.,
м/с
влажн.,
%
обл.,
%
осадки,
мм/ч
давл.,
гПа
погр.,
м
18 апреля, вс
вс1800:00+4зюз249515 0.0 1020108
03:00+2зсз22977 0.0 102031
06:00+2зсз249819 0.0 101974
09:00+6зсз358568 0.0 1019290
12:00+10сз3571100 0.0 1018670
15:00+12сз3470100 0.0 1017905
18:00+13с3573100 0.4 1016805
21:00+7всв3593100 0.8 1018103
19 апреля, пн
пн1900:00+8всв4990100 0.1 1019407
03:00+6всв3892100 0.1 1019313
06:00+5всв3887100 0.0 1019282
09:00+7в467599 0.0 1019384
12:00+11в34569 0.0 10181448
15:00+13в344697 0.1 10172034
18:00+10св4864100 0.0 1017554
21:00+9всв41071100 0.0 1017439
20 апреля, вт
вт2000:00+8св387745 0.0 1016283
03:00+4всв239016 0.0 101646
06:00+6св2389100 0.1 1015102
09:00+8св578284 0.6 1014419
12:00+11св566452 0.7 10131158
15:00+12ссв555783 1.0 10111531
18:00+10ссв576199 0.0 10111386
21:00+6ссв377794 0.0 1012377
21 апреля, ср
ср2100:00+6зсз2378100 0.0 1012178
03:00+5зсз488588 0.1 1012328
06:00+2зсз37925 0.0 1013142
09:00+7з346915 0.0 1013397
12:00+11з466199 0.0 10131385
15:00+12зюз4658100 0.4 10121413
18:00+13з3657100 0.6 10121395
21:00+8юз3679100 0.9 1013110
22 апреля, чт
чт2200:00+7юз3585100 0.0 101482
03:00+5юз35935 0.1 101485
06:00+4юз359414 0.0 101595
09:00+9юз47769 0.0 1015391
12:00+13юз476282 0.4 10141347
15:00+14з5864100 2.1 10131298
18:00+8зсз478985 0.8 1015452
21:00+7зсз1490100 0.9 1016324